Wetbulb
56.13 56.62 55.95 56.07 56.73 56.41 55.95 55.55 55.33 54.84 54.81 54.21 54.14 54.39 54.81 55.29 55.95 53.11 49.77 51.48 53.92 60.82 61.87 55.40 53.52 53.24 56.75 53.27 55.87 55.41 44.84 41.40 42.10 43.44 45.44 49.71 49.58 51.47 52.93 48.96 52.48 59.94 57.32 61.10 64.06
55.71 55.91 55.41 55.58 55.72 55.29 55.13 54.89 54.13 53.87 53.45 53.11 52.75 53.46 54.05 54.16 50.01 48.44 54.48 57.89 59.17 60.24 53.50 52.00 48.38 52.01 52.97 50.55 52.61 49.77 44.58 43.56 46.79 48.35 47.56 49.43 50.26 49.83 48.66 49.04 51.99 57.46 62.31 63.63 63.38
55.17 54.97 55.05 55.12 54.98 54.91 54.28 53.54 53.36 52.77 52.05 52.01 51.77 52.44 52.99 52.18 44.58 43.97 56.83 58.96 58.96 58.56 55.98 52.25 50.39 50.23 48.26 50.41 50.06 49.40 44.02 47.58 48.57 49.84 51.72 50.31 50.36 51.91 48.49 46.16 46.42 46.61 59.73 61.55 61.92
54.59 54.18 53.86 54.37 54.57 53.93 53.44 53.05 52.22 51.62 51.45 51.46 51.48 51.95 52.55 48.87 33.32 45.62 55.71 58.68 59.61 56.53 55.40 51.38 49.41 45.98 45.49 46.81 49.04 45.76 48.79 49.56 50.24 52.19 51.08 49.38 51.67 49.94 49.03 49.67 52.19 52.08 53.72 60.35 60.40
54.00 53.98 53.71 53.02 53.46 53.30 52.89 52.13 51.58 51.66 51.24 51.56 51.03 50.86 48.11 42.12 41.03 50.69 55.18 54.02 53.53 53.72 51.24 50.27 46.69 44.99 43.93 46.28 48.02 43.40 48.09 49.82 52.07 52.03 51.36 52.28 50.16 49.94 49.15 52.18 53.75 52.61 59.12 59.22 59.50
55.16 53.60 53.35 53.08 52.04 52.50 52.35 52.03 51.65 51.54 51.33 51.49 51.45 50.48 44.81 35.62 47.83 51.22 51.14 50.27 50.83 52.18 50.84 51.32 47.70 48.83 45.75 45.65 46.40 46.73 48.43 49.05 51.03 50.49 51.20 49.43 49.56 49.90 50.88 52.10 51.88 50.53 58.82 58.48 58.56
54.92 54.15 53.26 52.89 52.49 51.88 52.02 52.33 51.66 51.27 51.31 51.20 50.99 49.46 43.05 39.17 48.20 49.78 49.17 50.56 53.20 52.77 49.39 53.32 51.89 49.27 46.16 43.40 47.14 46.36 43.78 45.84 48.34 49.69 49.19 50.54 46.12 46.88 50.85 51.51 50.05 49.35 49.83 55.24 57.57
53.71 54.02 53.19 52.60 52.30 52.15 51.86 51.85 51.71 51.49 51.78 50.89 50.76 46.36 38.95 48.22 50.15 48.27 48.07 51.11 54.28 54.51 54.09 55.12 53.36 49.29 45.29 45.36 43.29 40.71 41.13 37.30 44.54 47.70 48.16 48.88 41.33 48.20 51.49 49.83 49.28 48.89 45.91 48.00 49.87
52.23 52.50 53.00 52.94 52.20 52.35 52.52 52.37 51.67 51.79 51.82 51.41 45.30 42.90 37.03 50.35 45.89 48.02 48.83 47.91 51.72 53.74 54.25 55.45 51.81 46.30 44.03 39.69 36.00 36.12 32.38 35.07 39.34 47.09 45.64 45.44 39.95 47.89 51.15 50.06 49.25 49.83 44.84 46.21 47.37
52.50 51.47 51.59 52.39 52.62 52.52 52.56 51.71 51.32 49.79 48.45 48.88 47.23 36.95 41.26 39.32 44.96 48.00 50.99 50.08 48.80 50.28 49.42 48.51 46.64 41.49 38.45 37.30 31.16 33.91 31.67 37.31 36.81 42.36 43.48 42.64 39.76 45.38 49.42 49.47 49.24 50.11 45.33 45.04 46.36
52.23 52.27 51.07 51.21 52.54 52.44 48.63 42.26 39.05 36.51 39.72 37.69 37.18 37.44 40.03 43.49 46.91 46.59 49.80 46.94 47.76 46.56 42.39 44.74 39.66 35.47 38.34 38.27 37.18 36.26 34.14 34.11 36.80 42.70 42.38 41.16 40.72 43.24 45.27 43.26 43.15 42.13 41.97 43.85 45.33
51.74 51.72 50.46 50.84 52.04 52.40 44.75 38.68 40.06 39.40 33.13 40.90 41.49 40.98 43.18 43.41 40.68 45.32 50.29 41.88 40.22 37.16 43.03 40.19 36.43 39.38 41.25 41.09 39.01 37.40 33.42 32.35 36.53 41.67 41.95 40.10 39.40 43.07 44.93 44.35 44.03 44.51 41.42 42.42 42.60
51.69 51.21 50.86 50.67 52.39 45.40 40.48 41.53 46.29 45.44 35.39 38.38 41.18 40.13 41.89 45.22 41.32 42.78 46.59 43.13 38.15 37.12 38.40 37.02 38.60 42.39 41.36 39.19 37.22 33.56 33.11 31.70 33.26 37.82 39.08 37.90 36.01 39.34 42.91 43.19 44.43 43.35 42.88 42.12 42.95
51.34 50.62 50.54 50.82 45.42 43.07 40.61 44.15 46.26 44.79 24.40 36.00 38.66 42.19 45.00 45.22 39.26 46.81 47.93 44.10 39.63 36.82 38.07 39.57 41.90 41.01 39.13 37.40 37.27 31.44 36.88 36.56 35.70 33.32 29.82 37.31 28.67 34.49 39.45 40.22 41.69 44.77 41.61 42.04 41.55
50.61 50.74 50.22 50.62 41.82 41.10 43.95 46.60 45.56 42.48 10.53 35.86 40.18 47.91 44.72 41.33 41.14 42.71 47.44 45.68 37.45 39.33 39.67 36.70 39.58 38.75 37.53 37.84 38.54 34.89 37.69 35.50 34.23 30.69 29.31 30.75 29.33 32.69 33.72 33.34 39.19 42.34 43.85 40.58 40.64
50.60 50.47 49.79 47.47 47.55 45.42 48.80 48.08 44.26 21.24 17.74 35.06 40.07 38.33 38.19 40.81 41.51 44.34 44.91 47.64 44.77 40.99 41.05 40.00 42.57 40.91 38.90 40.42 40.08 39.80 35.87 34.06 32.44 29.39 21.60 29.41 29.48 29.27 32.32 35.02 34.22 37.96 40.56 39.82 39.72
50.49 50.40 48.96 47.72 41.34 47.38 48.59 42.94 22.64 14.68 33.45 33.78 36.28 38.15 37.49 38.11 39.52 40.45 40.37 39.04 33.97 31.86 32.98 38.02 37.89 40.26 41.30 37.41 39.01 37.06 32.76 26.31 24.80 26.30 21.25 27.47 28.26 33.88 36.01 36.64 37.17 37.75 37.69 38.05 40.38
50.58 49.64 49.76 47.96 46.59 48.45 45.05 32.79 16.63 27.05 34.62 40.51 39.13 39.26 36.37 39.10 37.45 38.77 37.82 36.00 39.30 36.51 33.88 31.91 29.57 38.29 39.80 36.95 34.30 33.90 31.83 23.37 19.36 19.83 21.79 27.49 25.29 31.66 36.36 39.33 39.82 40.16 38.57 38.46 40.46
48.22 43.34 44.12 46.01 48.38 47.52 38.92 18.00 21.16 27.38 37.25 37.27 38.76 35.48 35.77 38.80 37.98 37.45 36.68 36.25 36.57 36.76 30.77 28.28 30.53 39.24 41.15 39.50 37.42 33.58 27.87 31.63 24.15 21.15 17.16 23.44 26.90 32.91 35.19 36.05 36.81 37.05 38.52 38.94 40.27
39.11 40.21 42.02 47.16 48.83 44.88 36.04 28.17 28.49 37.93 38.81 37.94 30.74 35.16 33.89 36.43 35.53 35.30 35.05 36.98 37.19 39.30 37.16 32.38 28.69 36.54 39.59 41.50 39.05 34.85 36.61 28.59 22.96 15.52 17.18 20.65 22.36 26.61 30.04 33.14 35.66 36.66 38.50 39.71 40.79
39.87 38.62 43.50 48.16 47.55 41.69 28.65 25.11 34.89 40.32 39.41 35.07 32.09 31.46 33.35 35.77 37.26 35.33 35.59 37.66 39.80 39.06 38.22 33.91 31.41 33.09 38.08 35.90 36.03 35.33 33.35 32.80 30.60 25.24 19.96 19.13 23.38 30.41 31.33 32.98 34.44 36.45 39.85 41.09 42.28
35.51 33.94 45.17 45.56 38.86 39.41 26.37 34.65 40.77 37.88 39.29 37.81 35.62 34.52 31.83 33.51 32.70 31.10 34.33 35.52 41.17 40.37 35.45 35.68 32.60 28.76 32.13 38.49 40.98 38.54 36.08 33.39 28.89 24.32 22.20 20.36 23.75 33.05 32.60 33.43 36.79 38.23 40.16 41.14 43.80
33.61 35.68 45.66 45.64 35.17 29.93 34.56 37.16 38.77 37.75 36.98 36.71 34.85 36.41 35.17 32.07 30.61 32.00 33.02 38.22 41.82 38.75 35.87 36.91 30.94 27.00 29.27 33.19 37.30 36.74 37.73 36.63 34.11 28.93 23.20 20.35 25.67 35.76 33.33 33.23 38.26 38.69 40.07 41.95 43.19
33.89 29.05 36.79 42.15 41.13 33.76 32.97 34.56 34.39 39.39 37.97 37.62 35.83 36.28 33.71 31.77 33.93 31.97 32.79 37.04 38.55 39.64 43.04 40.77 31.14 26.91 23.91 25.13 30.72 32.98 35.22 37.37 35.22 28.15 28.30 26.81 28.72 34.51 34.74 34.22 36.15 38.86 40.77 42.19 42.06
31.58 29.55 30.74 32.48 33.67 33.54 35.04 35.77 34.83 35.35 37.96 38.45 35.06 35.05 33.02 29.25 30.65 30.90 33.24 34.01 36.85 40.70 36.52 34.68 26.16 26.39 28.98 31.34 31.03 30.53 31.72 34.99 34.05 34.50 30.39 32.95 30.96 35.01 35.62 35.78 36.44 37.92 40.52 41.17 40.46
27.61 27.16 30.83 28.91 30.63 32.48 34.31 34.71 34.09 34.84 38.57 36.20 33.81 36.12 33.64 32.25 32.02 30.77 33.27 32.08 32.31 33.64 32.93 33.22 23.39 25.95 22.99 29.29 30.92 29.33 31.07 32.93 34.48 35.07 34.82 34.75 32.54 38.01 39.27 35.98 36.59 38.84 40.83 41.73 40.96
32.08 32.72 31.19 28.60 25.79 29.98 26.26 31.20 32.76 34.74 40.33 39.22 36.45 35.06 35.00 36.29 37.05 37.62 36.41 35.66 35.05 33.68 32.05 30.82 25.62 20.56 17.65 27.36 27.40 24.02 28.80 30.06 32.15 34.92 35.46 32.43 36.72 36.49 36.83 36.78 38.90 39.63 41.17 41.14 41.29
MSLP
1017.71 1016.99 1016.52 1015.99 1015.42 1015.15 1015.01 1014.83 1014.72 1014.64 1014.64 1014.67 1014.68 1014.75 1014.78 1014.74 1014.72 1014.79 1014.52 1014.60 1014.54 1013.98 1013.82 1014.46 1015.14 1015.27 1015.17 1015.57 1015.75 1015.80 1016.15 1015.87 1015.75 1016.18 1015.10 1015.70 1016.18 1015.88 1015.11 1014.88 1014.18 1014.02 1013.57 1013.47 1013.96
1017.80 1017.19 1016.65 1016.12 1015.55 1015.24 1015.02 1014.90 1014.73 1014.73 1014.75 1014.72 1014.77 1014.86 1014.81 1014.73 1014.76 1014.45 1014.27 1014.10 1014.01 1014.02 1014.27 1014.44 1015.10 1015.52 1015.54 1015.69 1015.87 1015.95 1016.03 1014.66 1014.84 1014.92 1014.35 1015.72 1016.53 1016.67 1016.16 1015.39 1014.75 1014.69 1014.11 1014.09 1014.24
1017.92 1017.41 1016.90 1016.14 1015.84 1015.45 1015.19 1014.98 1014.90 1014.88 1014.83 1014.90 1014.95 1014.94 1014.84 1014.82 1014.91 1013.71 1013.75 1013.77 1013.75 1013.92 1014.38 1014.55 1014.98 1015.42 1015.65 1015.72 1015.91 1015.76 1015.32 1014.96 1014.92 1015.32 1015.40 1016.22 1016.54 1016.99 1016.91 1015.99 1015.78 1016.20 1015.20 1014.36 1014.56
1017.91 1017.57 1017.09 1016.55 1016.03 1015.82 1015.49 1015.19 1014.85 1014.89 1014.92 1015.02 1015.04 1014.95 1014.96 1014.95 1014.55 1013.26 1012.85 1013.12 1013.51 1013.92 1014.46 1014.62 1015.12 1015.61 1015.60 1015.28 1015.43 1015.43 1015.08 1014.84 1015.03 1015.51 1016.11 1016.35 1016.64 1017.20 1017.36 1016.42 1016.02 1016.14 1016.02 1015.08 1014.88
1017.97 1017.72 1017.24 1016.86 1016.31 1016.04 1015.84 1015.60 1015.22 1014.94 1015.02 1015.11 1015.17 1015.13 1015.09 1014.99 1014.15 1013.46 1013.30 1013.36 1013.60 1013.90 1014.20 1014.48 1014.80 1015.25 1015.07 1015.10 1015.42 1015.01 1014.60 1014.85 1015.28 1015.87 1016.25 1016.77 1017.24 1017.86 1016.96 1016.26 1015.86 1015.79 1015.27 1015.48 1014.96
1017.93 1017.71 1017.45 1016.98 1016.60 1016.24 1016.11 1015.83 1015.55 1015.25 1015.07 1015.14 1015.28 1015.31 1015.34 1015.11 1013.99 1013.46 1013.43 1013.45 1013.09 1013.37 1013.84 1014.22 1014.18 1014.52 1014.98 1015.17 1015.32 1014.98 1014.82 1015.19 1015.64 1016.24 1016.31 1017.12 1017.81 1018.28 1015.79 1016.36 1016.09 1016.01 1015.63 1015.57 1015.13
1018.11 1017.86 1017.49 1017.12 1016.73 1016.32 1016.18 1015.96 1015.73 1015.62 1015.30 1015.19 1015.15 1015.42 1015.30 1015.11 1014.32 1013.95 1013.63 1012.91 1012.12 1012.62 1013.54 1013.93 1013.85 1014.31 1014.52 1015.25 1015.23 1015.20 1015.92 1016.19 1016.20 1016.26 1016.60 1016.99 1018.06 1018.03 1015.83 1016.53 1016.53 1016.39 1016.27 1015.82 1015.32
1018.30 1017.88 1017.37 1017.03 1016.76 1016.35 1016.10 1015.95 1015.73 1015.64 1015.48 1015.19 1015.02 1015.22 1014.75 1014.32 1014.33 1014.00 1013.24 1012.80 1012.16 1012.65 1013.50 1013.71 1013.77 1014.35 1014.66 1014.85 1015.32 1015.75 1016.39 1016.61 1016.34 1016.24 1016.07 1017.26 1017.03 1016.71 1017.07 1017.26 1016.61 1016.38 1016.40 1016.06 1015.37
1018.17 1017.83 1017.19 1016.84 1016.71 1016.39 1015.89 1015.76 1015.53 1015.35 1015.29 1015.19 1015.16 1015.17 1014.33 1013.99 1014.42 1013.52 1013.48 1013.08 1012.99 1013.25 1013.54 1013.68 1013.94 1014.59 1014.92 1015.20 1015.87 1016.27 1016.55 1016.45 1016.18 1015.62 1015.30 1016.43 1015.96 1015.76 1016.60 1016.78 1016.40 1016.36 1016.30 1015.86 1015.39
1018.03 1017.80 1017.50 1016.85 1016.64 1016.33 1015.84 1015.61 1015.42 1015.35 1015.26 1015.28 1015.15 1015.39 1014.40 1013.96 1013.75 1013.72 1013.37 1013.08 1013.27 1013.45 1013.75 1013.85 1014.55 1014.87 1015.16 1015.36 1014.74 1015.08 1015.73 1015.56 1015.33 1015.12 1015.17 1015.74 1015.44 1015.22 1015.55 1016.18 1016.11 1015.52 1016.04 1015.92 1015.71
1018.02 1017.71 1017.25 1016.93 1016.64 1016.30 1016.00 1016.00 1016.26 1016.01 1015.57 1015.28 1015.22 1014.90 1014.32 1013.93 1013.51 1013.48 1013.38 1013.66 1014.05 1013.92 1013.92 1013.70 1014.69 1014.03 1013.99 1014.77 1014.70 1015.38 1015.83 1016.04 1015.58 1015.02 1015.12 1015.39 1015.68 1015.15 1015.33 1015.82 1015.96 1015.87 1015.91 1015.80 1015.68
1017.79 1017.48 1017.10 1016.62 1016.24 1016.12 1016.25 1016.51 1016.38 1016.63 1015.87 1014.99 1014.97 1014.78 1014.24 1014.02 1013.89 1013.78 1013.81 1014.83 1014.98 1014.16 1013.24 1014.65 1014.17 1014.62 1014.69 1014.80 1014.97 1015.26 1015.88 1016.03 1015.80 1015.42 1015.78 1016.01 1015.87 1015.41 1015.01 1014.97 1015.30 1015.47 1015.63 1015.55 1015.64
1017.70 1017.33 1016.96 1016.38 1016.00 1016.12 1016.25 1016.39 1016.36 1016.56 1016.30 1015.16 1014.64 1014.45 1013.97 1014.12 1013.83 1013.91 1014.08 1014.68 1015.53 1015.34 1014.11 1013.71 1013.78 1014.40 1014.65 1014.94 1015.17 1015.53 1015.94 1016.36 1016.18 1016.11 1016.18 1016.20 1016.28 1015.85 1014.90 1014.82 1014.88 1014.98 1015.04 1015.32 1015.53
1017.38 1016.85 1016.58 1016.23 1016.38 1016.14 1016.12 1016.02 1016.31 1016.80 1016.47 1015.38 1014.52 1014.29 1014.00 1013.84 1013.95 1013.34 1014.50 1014.34 1015.06 1014.28 1014.34 1014.32 1014.05 1014.49 1014.81 1015.10 1015.29 1015.68 1015.90 1016.29 1016.71 1016.94 1017.09 1016.68 1016.52 1015.55 1014.72 1014.62 1014.65 1014.30 1014.73 1014.82 1015.27
1016.87 1016.65 1016.30 1016.07 1016.26 1016.18 1015.88 1015.99 1016.39 1016.89 1016.43 1015.44 1014.27 1013.96 1013.88 1013.78 1014.18 1013.48 1013.15 1013.98 1014.43 1014.28 1014.58 1014.97 1014.20 1014.44 1014.98 1015.13 1015.26 1015.96 1016.06 1016.72 1017.32 1018.01 1018.06 1018.02 1017.92 1015.23 1014.81 1014.58 1013.67 1013.60 1013.92 1014.54 1015.04
1016.57 1016.28 1015.92 1016.05 1016.25 1015.98 1015.86 1015.92 1016.48 1017.17 1015.74 1014.73 1014.41 1014.19 1014.17 1013.58 1013.11 1013.82 1013.45 1013.20 1013.92 1014.06 1014.67 1014.81 1014.84 1015.14 1015.32 1015.25 1015.33 1015.93 1016.80 1017.73 1018.53 1019.14 1019.20 1018.50 1018.17 1015.33 1014.30 1013.24 1013.49 1013.39 1013.54 1014.08 1014.81
1016.06 1015.37 1015.35 1015.69 1015.74 1015.47 1015.73 1016.25 1016.76 1016.18 1014.90 1014.32 1014.08 1013.88 1013.87 1013.68 1013.64 1013.58 1013.78 1014.08 1014.53 1014.57 1014.29 1015.17 1015.92 1015.84 1015.61 1015.91 1015.94 1016.34 1017.40 1019.18 1020.12 1020.42 1019.86 1019.07 1018.47 1014.33 1013.39 1013.19 1013.05 1013.43 1013.65 1014.05 1014.54
1015.65 1015.19 1015.24 1015.46 1015.42 1015.41 1015.89 1016.52 1016.28 1015.40 1014.10 1013.20 1013.30 1013.18 1012.97 1013.11 1013.87 1013.87 1014.18 1014.36 1014.31 1014.28 1014.86 1015.46 1016.68 1016.42 1016.44 1016.34 1016.34 1016.98 1017.60 1018.91 1019.97 1020.80 1020.51 1019.92 1017.60 1014.10 1013.20 1012.70 1012.65 1012.73 1013.25 1014.04 1014.64
1015.46 1015.84 1015.85 1015.65 1015.58 1015.59 1016.11 1016.04 1015.45 1014.70 1013.68 1012.85 1012.67 1012.78 1012.84 1012.92 1013.29 1013.87 1014.14 1014.26 1013.99 1013.90 1014.43 1015.64 1016.72 1016.93 1016.88 1016.85 1016.98 1017.63 1017.99 1018.74 1020.02 1021.28 1021.22 1019.44 1017.25 1014.55 1013.27 1012.97 1012.84 1012.97 1013.42 1013.92 1014.71
1015.88 1016.16 1016.05 1015.54 1015.35 1015.62 1015.75 1015.48 1014.67 1013.49 1012.82 1012.68 1012.34 1011.75 1012.13 1012.63 1013.25 1013.71 1014.21 1014.09 1014.00 1013.92 1014.12 1015.35 1016.92 1017.32 1017.33 1017.22 1017.40 1017.49 1018.01 1018.98 1020.01 1020.92 1020.71 1018.78 1017.53 1015.27 1013.68 1013.14 1013.24 1013.23 1013.32 1013.99 1014.71
1016.03 1016.17 1015.98 1015.68 1015.55 1015.64 1015.59 1015.00 1013.92 1012.95 1012.54 1012.48 1012.39 1012.10 1011.94 1012.29 1012.79 1013.41 1013.78 1013.87 1013.75 1014.09 1014.30 1014.97 1016.19 1017.90 1017.83 1017.42 1017.17 1017.88 1017.96 1018.64 1019.13 1019.86 1019.82 1018.95 1016.32 1014.23 1013.66 1013.38 1013.21 1013.14 1013.33 1013.83 1014.63
1016.35 1016.41 1016.06 1016.08 1015.96 1015.23 1014.77 1013.69 1012.97 1012.32 1012.17 1012.25 1012.20 1012.20 1012.17 1012.19 1012.66 1012.87 1013.11 1013.11 1013.23 1013.88 1014.68 1015.29 1016.51 1017.50 1017.67 1017.32 1017.24 1017.46 1017.74 1018.23 1018.76 1019.31 1019.26 1018.46 1015.31 1013.63 1013.11 1012.79 1012.63 1013.01 1013.30 1013.75 1014.41
1016.87 1016.74 1016.06 1015.92 1015.69 1015.41 1014.48 1013.31 1012.58 1012.48 1012.20 1012.13 1012.40 1012.29 1012.30 1012.39 1012.84 1013.08 1013.03 1012.83 1013.03 1013.72 1014.23 1015.08 1016.33 1017.29 1017.88 1017.94 1017.50 1017.15 1017.30 1017.57 1017.78 1018.26 1017.78 1017.34 1014.61 1013.12 1012.79 1012.43 1012.56 1012.91 1013.35 1013.95 1014.60
1017.58 1017.41 1016.65 1016.36 1015.76 1015.34 1014.84 1013.97 1012.80 1012.29 1012.29 1012.35 1012.38 1012.49 1012.44 1012.60 1012.58 1013.20 1013.50 1013.49 1013.48 1013.76 1014.25 1014.90 1016.05 1016.67 1016.95 1016.63 1016.60 1016.90 1016.77 1016.99 1017.41 1017.05 1016.25 1015.04 1014.02 1012.97 1012.75 1012.64 1012.78 1012.96 1013.29 1013.97 1014.74
1018.18 1018.47 1018.02 1017.14 1016.28 1016.04 1015.39 1014.69 1013.64 1012.82 1012.38 1012.32 1012.64 1013.01 1013.18 1013.05 1013.07 1013.27 1013.52 1013.75 1013.86 1014.01 1014.55 1015.12 1016.25 1016.99 1016.95 1016.65 1016.55 1016.23 1016.15 1016.25 1016.13 1015.69 1015.28 1014.04 1013.43 1012.72 1012.46 1012.38 1012.44 1012.83 1013.38 1014.20 1014.94
1018.97 1018.92 1018.56 1018.10 1017.36 1016.61 1015.92 1015.85 1014.79 1013.93 1013.28 1013.11 1013.28 1013.32 1013.29 1013.61 1013.70 1013.48 1013.40 1013.58 1013.69 1014.28 1014.77 1015.54 1016.65 1017.26 1017.42 1016.76 1016.40 1016.05 1015.59 1015.41 1015.11 1015.01 1014.55 1013.92 1012.73 1012.08 1011.81 1011.94 1012.41 1012.56 1013.15 1014.02 1014.68
1019.51 1019.43 1019.37 1019.12 1018.17 1017.50 1017.31 1016.51 1015.80 1014.90 1014.03 1014.00 1014.12 1013.94 1013.75 1013.95 1013.91 1013.64 1013.36 1013.26 1013.43 1014.06 1015.04 1015.98 1016.93 1017.96 1018.17 1017.39 1016.60 1015.80 1014.08 1014.05 1013.89 1013.46 1013.39 1013.44 1010.91 1011.86 1011.67 1011.66 1011.56 1011.99 1012.81 1013.09 1014.05
Wind_Speed
21 20 21 21 20 17 17 15 15 13 8 7 6 7 10 9 12 8 14 6 10 14 6 6 5 2 2 3 4 1 6 15 18 14 14 1 6 7 11 5 4 7 2 4 8
21 21 21 20 18 15 14 14 8 7 5 4 3 5 5 3 1 10 6 10 15 16 2 10 8 6 3 4 3 6 9 16 6 15 18 4 6 8 9 15 6 4 7 7 9
18 20 20 19 17 15 12 8 7 4 3 2 2 2 2 2 1 7 18 19 13 12 5 0 6 7 4 5 4 5 13 3 8 11 1 5 1 7 7 8 5 10 5 5 9
18 18 19 19 17 13 10 8 6 4 2 2 1 2 3 2 6 1 11 23 20 9 9 6 6 7 6 9 6 6 12 13 6 6 3 6 4 7 3 9 10 11 8 4 7
15 17 17 16 15 12 10 8 5 5 2 3 1 0 1 3 6 5 11 7 8 10 13 11 7 7 12 15 5 3 10 8 12 12 8 1 7 14 16 18 15 13 5 9 6
15 15 16 15 13 11 9 7 5 2 2 2 4 1 2 5 6 11 11 16 13 11 18 13 10 10 4 8 10 6 4 10 14 10 8 5 3 3 20 7 12 10 7 7 7
18 15 14 13 12 10 9 8 6 4 3 2 2 3 3 6 9 11 12 7 9 15 15 12 9 9 5 5 5 4 7 5 7 11 7 11 11 13 27 16 16 11 8 8 9
17 18 12 13 11 10 9 9 8 7 6 3 1 0 4 8 6 13 11 5 6 13 18 14 5 5 3 3 5 5 5 5 8 12 4 13 10 19 6 16 14 10 9 8 7
18 16 16 12 11 11 11 10 8 8 8 4 2 2 6 5 4 7 7 1 4 3 6 13 6 3 1 7 5 2 7 6 7 18 9 16 5 18 21 20 14 14 9 8 7
16 17 16 15 12 12 13 12 6 4 3 3 3 2 2 3 2 1 2 5 3 6 7 12 5 4 2 6 17 18 7 13 8 11 9 17 3 12 20 19 18 19 8 8 8
16 17 16 16 14 12 7 3 4 4 2 4 3 3 4 7 2 2 2 6 5 3 12 13 7 20 14 4 4 9 5 7 1 4 11 10 7 7 8 6 8 10 9 9 9
17 16 16 15 13 11 2 1 1 1 4 3 5 3 5 2 0 3 3 4 4 1 5 13 13 7 8 6 5 9 6 4 2 3 11 7 8 8 9 7 10 10 9 10 5
18 17 16 14 12 2 2 2 1 2 2 4 1 1 5 1 2 3 3 5 2 10 3 14 11 10 7 5 7 3 8 4 5 3 3 4 3 8 11 7 6 7 8 6 10
19 18 17 12 3 1 1 3 2 2 3 4 1 1 3 3 3 2 4 3 3 7 3 4 9 12 8 5 5 4 4 5 5 5 4 3 5 8 9 12 9 14 10 10 9
21 19 17 6 2 1 1 6 4 3 5 3 1 0 3 3 3 3 2 2 5 8 4 6 17 16 10 6 6 3 5 6 3 4 3 1 1 7 3 8 17 14 12 8 9
22 21 11 1 2 3 3 4 2 6 2 4 1 2 3 4 2 4 5 2 4 4 3 5 3 4 3 4 5 7 7 8 5 4 3 5 5 7 7 8 4 8 11 10 9
25 21 4 5 3 5 4 2 5 5 1 2 4 4 6 5 4 1 2 4 3 5 3 8 4 2 4 8 2 4 5 2 2 1 6 3 4 15 7 5 6 8 10 10 9
22 9 7 2 4 5 2 3 7 4 3 1 4 3 3 2 3 2 6 2 1 3 4 3 5 2 4 3 5 5 6 6 6 4 4 2 11 8 6 9 7 9 7 6 8
11 3 2 2 4 2 2 4 7 6 3 2 5 3 4 3 4 4 2 2 2 2 5 6 3 3 3 2 2 4 3 3 7 3 3 6 8 11 7 10 6 6 7 10 8
2 2 2 2 4 2 2 3 2 3 3 0 3 1 1 5 5 3 6 4 3 2 1 4 6 1 2 1 3 3 3 3 3 4 4 5 5 8 6 9 5 7 10 8 7
3 3 3 2 1 1 2 4 3 4 2 0 3 2 3 3 3 5 8 2 4 4 3 4 5 3 3 5 6 1 2 3 3 5 4 3 7 7 6 8 8 8 8 10 10
1 3 0 2 3 1 2 6 2 1 2 3 1 2 1 4 3 3 7 3 7 6 6 4 5 5 4 1 2 4 4 7 5 5 3 2 8 2 6 7 8 7 7 7 9
2 1 1 0 2 3 6 1 2 3 2 2 3 3 2 2 5 1 2 5 7 7 7 7 1 4 2 4 2 6 8 4 2 3 7 5 6 2 4 2 4 7 7 7 7
2 1 2 1 2 2 4 5 2 2 1 2 1 4 3 3 5 4 3 2 3 2 3 4 3 6 7 5 5 7 10 14 10 4 5 10 6 4 4 3 4 5 6 7 8
4 1 2 1 1 4 2 6 3 3 2 4 4 5 3 2 2 3 2 3 2 3 4 4 5 3 4 4 5 6 8 17 18 16 9 5 14 11 6 8 9 7 6 7 7
2 2 2 2 3 3 6 6 7 6 5 3 4 6 3 3 3 4 4 3 4 1 3 2 1 3 3 2 4 4 8 11 18 20 20 17 17 4 5 4 5 10 11 10 9
2 2 2 5 4 2 3 3 4 6 3 7 3 3 3 4 5 5 4 2 4 7 3 3 5 4 4 4 3 8 13 13 7 7 17 16 22 6 6 7 11 11 12 13 11
Wind_Direction
342 337 340 337 327 321 318 308 300 270 277 288 284 295 278 275 274 257 230 220 214 255 268 130 156 217 110 139 155 97 185 217 211 209 232 87 20 337 313 323 332 329 110 124 123
353 352 350 345 343 339 330 331 315 300 311 318 352 318 300 285 222 235 215 220 234 257 144 170 164 156 208 155 181 138 214 214 185 208 234 172 87 347 3 332 353 331 53 88 121
358 1 1 0 357 2 5 13 13 348 355 293 24 341 272 110 16 247 217 234 238 241 221 258 133 148 230 125 205 189 204 192 199 201 251 274 297 10 1 321 60 345 261 135 136
354 360 3 4 13 16 10 13 29 24 29 95 16 338 264 237 213 50 233 220 225 237 220 171 141 165 197 185 182 172 216 195 150 123 173 234 302 296 281 258 313 305 277 250 162
353 353 2 5 8 7 6 3 35 66 67 171 111 118 255 233 259 334 335 329 272 256 214 200 162 181 198 198 154 234 176 164 123 142 154 335 266 273 281 291 303 302 237 246 176
354 351 353 360 6 5 356 357 3 10 61 157 206 88 279 285 354 330 318 306 222 210 197 204 181 183 169 175 196 185 156 163 148 181 152 149 229 221 266 288 317 331 251 237 203
347 357 348 351 356 2 348 338 346 328 332 325 268 201 267 269 310 302 300 280 198 179 192 214 181 168 129 131 175 185 103 108 190 169 177 174 231 220 256 286 298 295 278 234 235
347 341 352 342 339 345 333 317 311 301 297 293 256 62 251 171 244 300 298 321 41 176 187 199 185 131 143 134 101 96 90 147 200 168 143 150 222 221 263 269 278 282 268 265 210
343 342 337 345 336 329 333 309 300 283 280 275 53 152 273 140 226 255 243 133 117 121 206 191 126 165 50 130 83 163 173 186 154 199 153 181 177 192 195 240 254 261 254 263 269
345 340 337 332 335 326 323 311 285 341 321 275 256 331 249 313 293 303 17 69 140 126 154 186 186 141 115 167 185 185 190 191 170 188 179 195 218 167 194 196 221 252 242 249 260
344 336 333 327 326 329 345 16 6 323 23 232 280 272 300 298 212 67 91 54 12 173 188 163 175 199 186 185 158 120 111 165 137 202 191 204 214 231 183 186 223 247 252 235 238
341 337 331 327 321 332 69 93 262 204 309 262 269 262 258 240 281 110 123 134 10 66 169 146 206 173 137 153 136 133 117 151 74 158 180 184 212 245 258 219 209 229 237 235 220
338 334 333 324 322 26 123 211 51 335 298 298 195 254 276 7 24 127 129 153 165 172 180 162 156 150 139 118 131 90 149 165 162 98 59 116 246 228 239 236 243 237 243 213 204
336 332 330 317 342 259 230 182 121 44 39 15 103 75 303 330 27 319 98 134 188 137 105 82 145 147 147 113 110 95 159 148 115 110 203 160 269 242 230 238 232 239 216 227 197
332 334 323 273 193 174 243 132 102 72 58 307 54 8 336 345 123 339 322 142 124 128 132 196 165 153 158 151 122 124 136 142 122 94 119 224 144 254 232 231 236 235 243 218 194
330 328 316 196 161 236 129 122 94 40 321 114 91 68 32 299 266 140 343 298 84 69 91 86 33 73 127 89 142 132 82 53 54 82 318 183 169 256 211 213 218 233 232 205 182
329 321 237 151 195 155 128 110 36 107 223 163 116 179 228 168 102 48 139 109 143 119 88 80 30 59 44 93 68 89 96 58 45 218 227 283 176 243 251 266 217 235 243 199 178
332 351 156 177 144 138 113 67 71 265 268 124 120 171 107 129 96 107 119 107 261 150 88 122 142 63 357 84 166 145 163 151 180 189 239 71 238 241 246 260 247 227 210 165 160
350 3 82 244 156 128 123 58 200 205 251 210 162 152 156 122 98 98 55 144 232 41 110 109 65 26 37 19 61 191 146 161 104 42 67 217 291 296 268 268 257 209 164 162 168
64 48 349 207 156 124 109 253 221 212 345 319 280 185 49 113 145 143 161 210 188 152 139 139 104 304 11 309 52 86 171 92 1 142 242 260 260 244 283 269 269 202 172 166 158
49 74 287 253 62 206 199 217 279 245 325 196 292 256 158 160 166 170 169 163 180 152 70 110 90 131 156 213 183 155 156 86 136 153 190 281 256 216 247 262 227 199 176 167 164
69 88 305 11 245 172 205 194 226 107 70 317 289 325 96 138 136 201 175 234 162 138 147 186 118 155 189 230 255 169 198 187 188 220 234 170 262 244 269 268 184 189 168 157 161
78 166 124 24 331 335 301 288 100 35 53 16 327 359 307 122 107 91 67 345 140 154 161 177 100 105 79 358 316 220 192 218 88 48 201 176 259 335 12 57 168 160 156 155 139
69 18 326 246 250 246 0 337 350 89 83 33 334 346 357 3 28 135 115 49 125 122 104 93 148 166 184 199 133 200 203 206 209 203 195 226 281 307 325 191 208 179 163 162 159
23 265 190 357 314 349 333 355 310 31 53 50 16 31 328 344 45 98 103 118 70 129 98 125 170 149 236 222 168 188 195 212 217 230 227 259 232 241 229 220 205 190 163 152 170
97 107 360 301 308 295 7 6 21 340 10 46 54 336 350 59 5 225 135 176 183 49 100 16 167 109 323 297 215 255 227 220 223 234 246 256 270 234 257 173 176 196 175 184 194
345 358 64 337 351 59 11 319 13 335 74 88 337 342 62 359 309 301 229 190 185 147 133 108 124 78 276 332 332 286 231 211 202 213 223 233 243 169 243 225 204 198 200 183 195